|
|
||||
|
|
| Station | Place | Date/Time | Stage (m) | Flow/Cap | Spill | Comment |
|---|---|---|---|---|---|---|
| C1H007 | Vaal at Bloukop | 2026-05-09 04:00 | 2.252 | 37.26 | ||
| C1H006 | Blesbok at Rietvley | 2026-05-05 11:00 | 0.255 | 0.35 | ||
| C1R002 | Vaal at Grootdraai Dam | 2026-05-09 03:00 | 27.303 | 103.66 | 39.93 | |
| C1H019 | Outflow from Grootdraai Dam | 2026-05-09 04:00 | 1.087 | 22.99 | ||
| C1H015 | Klip at Delangesdrift | 2026-05-09 04:00 | 5.056 | 70.78 | ||
| C1H012 | Vaal at Gladdedrift | 2026-05-08 23:00 | 2.026 | 147.20 | ||
| C1H008 | Watervals at Elandslaagte | 2026-05-08 23:00 | 1.064 | 3.07 | ||
| C8R003 | Nuwejaarspr at Sterkfontein Dam | 2026-05-09 04:00 | 81.837 | 99.58 | ||
| C8H005 | Elands at Elands River Drift | 2026-05-09 04:00 | 0.407 | 7.98 | ||
| C8H023 | Meul River at The Willows | 2026-05-09 01:00 | 0.551 | 4.70 | ||
| C8H003 | Cornelis at Warden | 2026-05-09 04:00 | 0.164 | 2.94 | ||
| C8H028 | Wilge at Bavaria | 2026-05-09 04:00 | 0.646 | 43.92 | ||
| C8H027 | Wilge at Ballingtomp | 2026-05-09 00:00 | 1.632 | 84.66 | ||
| C8H036 | Ash at outlet from Katse Dam | 2026-05-09 04:00 | 1.15 | 24.80 | ||
| C8R004 | Liebenbergsvlei at Saulspoort Dam | 2026-05-09 04:00 | 10.539 | 102.19 | 4.51 | |
| C8H037 | Liebenbergsvlei at Reward | 2026-05-09 04:00 | 0.948 | 55.50 | ||
| C8H026 | Liebenbergsvlei at Frederiksdal | 2026-05-09 01:00 | 1.912 | 96.88 | ||
| C8H001 | Wilge at Frankfort | 2026-05-09 01:00 | 2.17 | 259.31 | ||
| C1R001 | Vaal at Vaal Dam | 2026-05-09 04:00 | 23.377 | 111.07 | Controlled Spillway | |
| C2H122 | Outflow from Vaal Dam | 2026-05-09 04:00 | 1.105 | 130.50 |
Use your mouse cursor zoom and pan the images below.